CUSAT 2 & FALCON 9 R/B (39271 NORAD) Tracking and Keplerian Element Data

This shows tracking and keplerian element data for the satellite.

Feedback or suggestion? Click here.




ElementValue
Catalog39271
NameCUSAT 2 & FALCON 9 R/B
Epoch Orbit28963
Epoch Day111.73822562
Epoch Year2019
RAAN0.3828
Inclination80.97
Eccentricity0.0603459
Argument of Perigee358.0312
Mean Anonmoly1.8499
Mean Motion14.44467871
Decay Rate5.753E-05
L11 39271U 13055G 19111.73822562 .00005753 00000-0 14120-3 0 9995
L22 39271 80.9700 0.3828 0603459 358.0312 1.8499 14.44467871289633

Live tracking and technical data element details for CUSAT 2 & FALCON 9 R/B (NORAD 39271). CUSAT 2 & FALCON 9 R/B can be tracked NOW for your location showing map with azimuth and elevation plus other details from your city location.

Track the satellite on the map from your city or location and see movement details for azimuth, elevation, latitude, longitude, range, height, and movement on the map or in text.







IsCatalogInMostPopularTable: catalog: 39271, numindb: 251
Update: records affected: 1



GetName: 39271 CUSAT 2 & FALCON 9 R/B

Hit Count: updated at: Tue, 23 Apr 2019 02:59:01 GMT